sat.trackr.live / text

‹ back to catalog

ONEWEB-0543

NORAD 55143 · 2023-004D

PAYLOAD ACTIVE UNKNOWN

§ Identity

Operator
Country
UK
Launch date
2023-01-10
Launch site
AFETR
Launch vehicle
Mass (kg)
RCS (m²)

Purposes: comms

External: N2YO · Heavens-Above · Gunter

§ Orbital elements

Epoch: 2026-05-25T02:20:17.508768Z

Period
109.20 min
Inclination
87.9160°
Eccentricity
0.0001672
Mean motion
13.18677159 rev/d
Perigee alt
1,188.5 km
Apogee alt
1,191.0 km
Semi-major
7,567.9 km
B*
5.1360e-3
RAAN
340.0665°
Arg perigee
81.5925°
Mean anomaly
278.5396°
Rev number
16,665

§ Raw data

ONEWEB-05431 55143U 23004D   26145.09742487  .00002038  00000+0  51360-2 0  99952 55143  87.9160 340.0665 0001672  81.5925 278.5396 13.18677159166653

JSON: /api/v1/satellites/55143 · /tle

For live sub-satellite position, see the globe view (requires WebGL).

§ Visibility from observer

Set your observer location to see the next 7 days of passes ≥ 10°. The values pass through the URL so the page stays shareable.

No JS? Fill the form by hand. The geolocation button needs JavaScript.